TimeCST,TemperatureF,Dew PointF,Humidity,Sea Level PressureIn,VisibilityMPH,Wind Direction,Wind SpeedMPH,Gust SpeedMPH,PrecipitationIn,Events,Conditions,WindDirDegrees,DateUTC
12:53 AM,28.9,17.1,61,30.14,10.0,SW,5.8,-,N/A,,Clear,230,2013-11-28 06:53:00
1:53 AM,28.9,18.0,64,30.14,10.0,WSW,9.2,-,N/A,,Clear,240,2013-11-28 07:53:00
2:53 AM,26.1,18.0,71,30.16,10.0,West,5.8,-,N/A,,Clear,260,2013-11-28 08:53:00
3:53 AM,25.0,18.0,75,30.18,10.0,Variable,5.8,-,N/A,,Clear,0,2013-11-28 09:53:00
4:53 AM,26.1,19.0,75,30.19,10.0,West,12.7,-,N/A,,Clear,280,2013-11-28 10:53:00
5:53 AM,25.0,19.0,78,30.23,10.0,WNW,10.4,-,N/A,,Clear,290,2013-11-28 11:53:00
6:53 AM,26.1,19.0,75,30.27,10.0,NW,10.4,-,N/A,,Clear,320,2013-11-28 12:53:00
7:53 AM,26.1,19.9,78,30.30,10.0,NW,9.2,-,N/A,,Clear,320,2013-11-28 13:53:00
8:53 AM,27.0,19.0,72,30.34,10.0,NNW,13.8,24.2,N/A,,Clear,340,2013-11-28 14:53:00
9:53 AM,28.9,19.0,67,30.37,10.0,NNW,16.1,21.9,N/A,,Clear,340,2013-11-28 15:53:00
10:53 AM,32.0,18.0,56,30.39,10.0,North,15.0,-,N/A,,Clear,360,2013-11-28 16:53:00
11:53 AM,34.0,18.0,52,30.40,10.0,NNW,12.7,19.6,N/A,,Clear,340,2013-11-28 17:53:00
12:53 PM,36.0,19.0,50,30.39,10.0,NNW,9.2,17.3,N/A,,Clear,330,2013-11-28 18:53:00
1:53 PM,36.0,18.0,48,30.39,10.0,North,11.5,-,N/A,,Clear,350,2013-11-28 19:53:00
2:53 PM,36.0,18.0,48,30.41,10.0,NNW,8.1,-,N/A,,Clear,340,2013-11-28 20:53:00
3:53 PM,35.1,18.0,50,30.43,10.0,North,6.9,-,N/A,,Clear,10,2013-11-28 21:53:00
4:53 PM,32.0,18.0,56,30.45,10.0,NNE,4.6,-,N/A,,Clear,20,2013-11-28 22:53:00
5:53 PM,28.0,17.1,63,30.48,10.0,North,5.8,-,N/A,,Clear,10,2013-11-28 23:53:00
6:53 PM,27.0,17.1,66,30.48,10.0,Calm,Calm,-,N/A,,Clear,0,2013-11-29 00:53:00
7:53 PM,26.1,17.1,69,30.50,10.0,Calm,Calm,-,N/A,,Clear,0,2013-11-29 01:53:00
8:53 PM,25.0,16.0,69,30.51,10.0,North,3.5,-,N/A,,Clear,360,2013-11-29 02:53:00
9:53 PM,21.9,16.0,78,30.52,10.0,Calm,Calm,-,N/A,,Clear,0,2013-11-29 03:53:00
10:53 PM,21.0,16.0,81,30.53,10.0,Calm,Calm,-,N/A,,Clear,0,2013-11-29 04:53:00
11:53 PM,21.0,15.1,78,30.53,10.0,Calm,Calm,-,N/A,,Clear,0,2013-11-29 05:53:00